Year,Month,Day,Hour,Minute,Value (Times are PST for temperature in C)
2009,01,19,00,00,4.60
2009,01,19,00,01,4.60
2009,01,19,00,02,4.60
2009,01,19,00,03,4.60
2009,01,19,00,04,4.60
2009,01,19,00,05,4.60
2009,01,19,00,06,4.60
2009,01,19,00,07,4.60
2009,01,19,00,08,4.60
2009,01,19,00,09,4.60
2009,01,19,00,10,4.60
2009,01,19,00,11,4.60
2009,01,19,00,12,4.60
2009,01,19,00,13,4.60
2009,01,19,00,14,4.60
2009,01,19,00,15,4.60
2009,01,19,00,16,4.60
2009,01,19,00,17,4.60
2009,01,19,00,18,4.60
2009,01,19,00,19,4.50
2009,01,19,00,20,4.50
2009,01,19,00,21,4.50
2009,01,19,00,22,4.40
2009,01,19,00,23,4.40
2009,01,19,00,24,4.40
2009,01,19,00,25,4.40
2009,01,19,00,26,4.40
2009,01,19,00,27,4.50
2009,01,19,00,28,4.50
2009,01,19,00,29,4.50
2009,01,19,00,30,4.60
2009,01,19,00,31,4.70
2009,01,19,00,32,4.70
2009,01,19,00,33,4.70
2009,01,19,00,34,4.80
2009,01,19,00,35,4.80
2009,01,19,00,36,4.80
2009,01,19,00,37,4.80
2009,01,19,00,38,4.80
2009,01,19,00,39,4.80
2009,01,19,00,40,4.80
2009,01,19,00,41,4.80
2009,01,19,00,42,4.80
2009,01,19,00,43,4.90
2009,01,19,00,44,4.90
2009,01,19,00,45,4.90
2009,01,19,00,46,5.00
2009,01,19,00,47,5.10
2009,01,19,00,48,5.00
2009,01,19,00,49,4.90
2009,01,19,00,50,4.90
2009,01,19,00,51,4.90
2009,01,19,00,52,4.90
2009,01,19,00,53,4.90
2009,01,19,00,54,4.90
2009,01,19,00,55,4.90
2009,01,19,00,56,4.90
2009,01,19,00,57,4.90
2009,01,19,00,58,4.90
2009,01,19,00,59,4.90
2009,01,19,01,00,4.90
2009,01,19,01,01,4.80
2009,01,19,01,02,4.80
2009,01,19,01,03,4.80
2009,01,19,01,04,4.80
2009,01,19,01,05,4.80
2009,01,19,01,06,4.80
2009,01,19,01,07,4.90
2009,01,19,01,08,4.90
2009,01,19,01,09,4.90
2009,01,19,01,10,5.10
2009,01,19,01,11,5.10
2009,01,19,01,12,5.10
2009,01,19,01,13,5.10
2009,01,19,01,14,5.10
2009,01,19,01,15,5.10
2009,01,19,01,16,5.10
2009,01,19,01,17,5.10
2009,01,19,01,18,5.10
2009,01,19,01,19,5.10
2009,01,19,01,20,5.00
2009,01,19,01,21,4.90
2009,01,19,01,22,4.90
2009,01,19,01,23,4.80
2009,01,19,01,24,4.80
2009,01,19,01,25,4.70
2009,01,19,01,26,4.70
2009,01,19,01,27,4.70
2009,01,19,01,28,4.60
2009,01,19,01,29,4.60
2009,01,19,01,30,4.60
2009,01,19,01,31,4.60
2009,01,19,01,32,4.60
2009,01,19,01,33,4.60
2009,01,19,01,34,4.60
2009,01,19,01,35,4.50
2009,01,19,01,36,4.50
2009,01,19,01,37,4.50
2009,01,19,01,38,4.40
2009,01,19,01,39,4.40
2009,01,19,01,40,4.30
2009,01,19,01,41,4.20
2009,01,19,01,42,4.20
2009,01,19,01,43,4.20
2009,01,19,01,44,4.20
2009,01,19,01,45,4.20
2009,01,19,01,46,4.20
2009,01,19,01,47,4.20
2009,01,19,01,48,4.10
2009,01,19,01,49,4.20
2009,01,19,01,50,4.20
2009,01,19,01,51,4.10
2009,01,19,01,52,4.10
2009,01,19,01,53,4.00
2009,01,19,01,54,4.00
2009,01,19,01,55,3.90
2009,01,19,01,56,3.80
2009,01,19,01,57,3.80
2009,01,19,01,58,3.80
2009,01,19,01,59,3.80
2009,01,19,02,00,3.80
2009,01,19,02,01,3.80
2009,01,19,02,02,3.80
2009,01,19,02,03,3.80
2009,01,19,02,04,3.80
2009,01,19,02,05,3.80
2009,01,19,02,06,3.90
2009,01,19,02,07,4.00
2009,01,19,02,08,4.00
2009,01,19,02,09,4.00
2009,01,19,02,10,4.00
2009,01,19,02,11,4.00
2009,01,19,02,12,4.00
2009,01,19,02,13,4.00
2009,01,19,02,14,4.10
2009,01,19,02,15,4.10
2009,01,19,02,16,4.00
2009,01,19,02,17,4.00
2009,01,19,02,18,3.80
2009,01,19,02,19,3.70
2009,01,19,02,20,3.50
2009,01,19,02,21,3.50
2009,01,19,02,22,3.50
2009,01,19,02,23,3.50
2009,01,19,02,24,3.40
2009,01,19,02,25,3.50
2009,01,19,02,26,3.50
2009,01,19,02,27,3.60
2009,01,19,02,28,3.70
2009,01,19,02,29,3.80
2009,01,19,02,30,3.80
2009,01,19,02,31,3.80
2009,01,19,02,32,3.80
2009,01,19,02,33,3.80
2009,01,19,02,34,3.80
2009,01,19,02,35,3.80
2009,01,19,02,36,3.80
2009,01,19,02,37,3.80
2009,01,19,02,38,3.80
2009,01,19,02,39,3.80
2009,01,19,02,40,3.80
2009,01,19,02,41,3.90
2009,01,19,02,42,4.00
2009,01,19,02,43,4.10
2009,01,19,02,44,4.20
2009,01,19,02,45,4.20
2009,01,19,02,46,4.20
2009,01,19,02,47,4.20
2009,01,19,02,48,4.20
2009,01,19,02,49,4.20
2009,01,19,02,50,4.20
2009,01,19,02,51,4.10
2009,01,19,02,52,4.00
2009,01,19,02,53,3.90
2009,01,19,02,54,3.80
2009,01,19,02,55,3.70
2009,01,19,02,56,3.60
2009,01,19,02,57,3.60
2009,01,19,02,58,3.60
2009,01,19,02,59,3.60
2009,01,19,03,00,3.70
2009,01,19,03,01,3.70
2009,01,19,03,02,3.80
2009,01,19,03,03,3.90
2009,01,19,03,04,4.00
2009,01,19,03,05,4.00
2009,01,19,03,06,4.00
2009,01,19,03,07,4.10
2009,01,19,03,08,4.10
2009,01,19,03,09,4.10
2009,01,19,03,10,4.10
2009,01,19,03,11,4.20
2009,01,19,03,12,4.20
2009,01,19,03,13,4.20
2009,01,19,03,14,4.20
2009,01,19,03,15,4.20
2009,01,19,03,16,4.20
2009,01,19,03,17,4.20
2009,01,19,03,18,4.20
2009,01,19,03,19,4.20
2009,01,19,03,20,4.30
2009,01,19,03,21,4.30
2009,01,19,03,22,4.30
2009,01,19,03,23,4.40
2009,01,19,03,24,4.40
2009,01,19,03,25,4.40
2009,01,19,03,26,4.30
2009,01,19,03,27,4.30
2009,01,19,03,28,4.30
2009,01,19,03,29,4.20
2009,01,19,03,30,4.20
2009,01,19,03,31,4.20
2009,01,19,03,32,4.20
2009,01,19,03,33,4.10
2009,01,19,03,34,4.10
2009,01,19,03,35,4.00
2009,01,19,03,36,4.00
2009,01,19,03,37,4.00
2009,01,19,03,38,4.00
2009,01,19,03,39,4.00
2009,01,19,03,40,4.00
2009,01,19,03,41,4.00
2009,01,19,03,42,3.90
2009,01,19,03,43,3.90
2009,01,19,03,44,3.90
2009,01,19,03,45,3.90
2009,01,19,03,46,3.80
2009,01,19,03,47,3.80
2009,01,19,03,48,3.80
2009,01,19,03,49,3.80
2009,01,19,03,50,3.80
2009,01,19,03,51,3.80
2009,01,19,03,52,3.80
2009,01,19,03,53,3.80
2009,01,19,03,54,3.80
2009,01,19,03,55,3.80
2009,01,19,03,56,3.80
2009,01,19,03,57,3.80
2009,01,19,03,58,3.80
2009,01,19,03,59,3.80
2009,01,19,04,00,3.80
2009,01,19,04,01,3.80
2009,01,19,04,02,3.90
2009,01,19,04,03,4.00
2009,01,19,04,04,4.00
2009,01,19,04,05,4.00
2009,01,19,04,06,4.10
2009,01,19,04,07,4.10
2009,01,19,04,08,4.10
2009,01,19,04,09,4.10
2009,01,19,04,10,4.10
2009,01,19,04,11,4.10
2009,01,19,04,12,4.20
2009,01,19,04,13,4.20
2009,01,19,04,14,4.10
2009,01,19,04,15,4.10
2009,01,19,04,16,4.10
2009,01,19,04,17,4.10
2009,01,19,04,18,4.10
2009,01,19,04,19,4.10
2009,01,19,04,20,4.10
2009,01,19,04,21,4.10
2009,01,19,04,22,4.10
2009,01,19,04,23,4.10
2009,01,19,04,24,4.20
2009,01,19,04,25,4.20
2009,01,19,04,26,4.20
2009,01,19,04,27,4.10
2009,01,19,04,28,4.10
2009,01,19,04,29,4.00
2009,01,19,04,30,4.00
2009,01,19,04,31,3.90
2009,01,19,04,32,3.90
2009,01,19,04,33,3.90
2009,01,19,04,34,3.90
2009,01,19,04,35,4.00
2009,01,19,04,36,4.00
2009,01,19,04,37,4.00
2009,01,19,04,38,4.10
2009,01,19,04,39,4.10
2009,01,19,04,40,4.20
2009,01,19,04,41,4.20
2009,01,19,04,42,4.20
2009,01,19,04,43,4.30
2009,01,19,04,44,4.40
2009,01,19,04,45,4.40
2009,01,19,04,46,4.50
2009,01,19,04,47,4.50
2009,01,19,04,48,4.60
2009,01,19,04,49,4.60
2009,01,19,04,50,4.60
2009,01,19,04,51,4.60
2009,01,19,04,52,4.60
2009,01,19,04,53,4.60
2009,01,19,04,54,4.60
2009,01,19,04,55,4.60
2009,01,19,04,56,4.50
2009,01,19,04,57,4.50
2009,01,19,04,58,4.50
2009,01,19,04,59,4.40
2009,01,19,05,00,4.40
2009,01,19,05,01,4.40
2009,01,19,05,02,4.30
2009,01,19,05,03,4.20
2009,01,19,05,04,4.10
2009,01,19,05,05,4.00
2009,01,19,05,06,4.00
2009,01,19,05,07,3.90
2009,01,19,05,08,3.80
2009,01,19,05,09,3.70
2009,01,19,05,10,3.60
2009,01,19,05,11,3.60
2009,01,19,05,12,3.50
2009,01,19,05,13,3.40
2009,01,19,05,14,3.30
2009,01,19,05,15,3.20
2009,01,19,05,16,3.10
2009,01,19,05,17,3.10
2009,01,19,05,18,3.10
2009,01,19,05,19,3.10
2009,01,19,05,20,3.10
2009,01,19,05,21,3.10
2009,01,19,05,22,3.20
2009,01,19,05,23,3.30
2009,01,19,05,24,3.30
2009,01,19,05,25,3.30
2009,01,19,05,26,3.30
2009,01,19,05,27,3.30
2009,01,19,05,28,3.20
2009,01,19,05,29,3.20
2009,01,19,05,30,3.20
2009,01,19,05,31,3.20
2009,01,19,05,32,3.30
2009,01,19,05,33,3.30
2009,01,19,05,34,3.30
2009,01,19,05,35,3.30
2009,01,19,05,36,3.30
2009,01,19,05,37,3.20
2009,01,19,05,38,3.20
2009,01,19,05,39,3.20
2009,01,19,05,40,3.30
2009,01,19,05,41,3.30
2009,01,19,05,42,3.40
2009,01,19,05,43,3.50
2009,01,19,05,44,3.60
2009,01,19,05,45,3.70
2009,01,19,05,46,3.80
2009,01,19,05,47,3.90
2009,01,19,05,48,4.00
2009,01,19,05,49,4.00
2009,01,19,05,50,4.00
2009,01,19,05,51,4.10
2009,01,19,05,52,4.20
2009,01,19,05,53,4.20
2009,01,19,05,54,4.20
2009,01,19,05,55,4.20
2009,01,19,05,56,4.20
2009,01,19,05,57,4.20
2009,01,19,05,58,4.30
2009,01,19,05,59,4.30
2009,01,19,06,00,4.30
2009,01,19,06,01,4.30
2009,01,19,06,02,4.40
2009,01,19,06,03,4.40
2009,01,19,06,04,4.50
2009,01,19,06,05,4.40
2009,01,19,06,06,4.40
2009,01,19,06,07,4.40
2009,01,19,06,08,4.30
2009,01,19,06,09,4.20
2009,01,19,06,10,4.20
2009,01,19,06,11,4.20
2009,01,19,06,12,4.20
2009,01,19,06,13,4.20
2009,01,19,06,14,4.20
2009,01,19,06,15,4.10
2009,01,19,06,16,4.00
2009,01,19,06,17,3.90
2009,01,19,06,18,3.80
2009,01,19,06,19,3.60
2009,01,19,06,20,3.50
2009,01,19,06,21,3.50
2009,01,19,06,22,3.30
2009,01,19,06,23,3.30
2009,01,19,06,24,3.20
2009,01,19,06,25,3.10
2009,01,19,06,26,2.90
2009,01,19,06,27,2.80
2009,01,19,06,28,2.70
2009,01,19,06,29,2.50
2009,01,19,06,30,2.40
2009,01,19,06,31,2.40
2009,01,19,06,32,2.30
2009,01,19,06,33,2.30
2009,01,19,06,34,2.30
2009,01,19,06,35,2.30
2009,01,19,06,36,2.20
2009,01,19,06,37,2.20
2009,01,19,06,38,2.20
2009,01,19,06,39,2.10
2009,01,19,06,40,2.00
2009,01,19,06,41,1.90
2009,01,19,06,42,1.90
2009,01,19,06,43,1.80
2009,01,19,06,44,1.90
2009,01,19,06,45,1.90
2009,01,19,06,46,1.90
2009,01,19,06,47,1.90
2009,01,19,06,48,1.90
2009,01,19,06,49,1.90
2009,01,19,06,50,1.80
2009,01,19,06,51,1.80
2009,01,19,06,52,1.90
2009,01,19,06,53,1.90
2009,01,19,06,54,1.90
2009,01,19,06,55,1.90
2009,01,19,06,56,1.90
2009,01,19,06,57,1.80
2009,01,19,06,58,1.80
2009,01,19,06,59,1.80
2009,01,19,07,00,1.80
2009,01,19,07,01,1.80
2009,01,19,07,02,1.80
2009,01,19,07,03,1.90
2009,01,19,07,04,1.90
2009,01,19,07,05,1.90
2009,01,19,07,06,1.90
2009,01,19,07,07,1.90
2009,01,19,07,08,2.00
2009,01,19,07,09,2.00
2009,01,19,07,10,2.10
2009,01,19,07,11,2.20
2009,01,19,07,12,2.20
2009,01,19,07,13,2.30
2009,01,19,07,14,2.30
2009,01,19,07,15,2.30
2009,01,19,07,16,2.40
2009,01,19,07,17,2.40
2009,01,19,07,18,2.50
2009,01,19,07,19,2.50
2009,01,19,07,20,2.60
2009,01,19,07,21,2.60
2009,01,19,07,22,2.70
2009,01,19,07,23,2.70
2009,01,19,07,24,2.70
2009,01,19,07,25,2.70
2009,01,19,07,26,2.80
2009,01,19,07,27,2.80
2009,01,19,07,28,2.80
2009,01,19,07,29,2.80
2009,01,19,07,30,2.80
2009,01,19,07,31,2.80
2009,01,19,07,32,2.80
2009,01,19,07,33,2.90
2009,01,19,07,34,2.90
2009,01,19,07,35,2.90
2009,01,19,07,36,2.90
2009,01,19,07,37,2.90
2009,01,19,07,38,2.90
2009,01,19,07,39,3.00
2009,01,19,07,40,3.10
2009,01,19,07,41,3.10
2009,01,19,07,42,3.10
2009,01,19,07,43,3.10
2009,01,19,07,44,3.10
2009,01,19,07,45,3.10
2009,01,19,07,46,3.20
2009,01,19,07,47,3.20
2009,01,19,07,48,3.20
2009,01,19,07,49,3.20
2009,01,19,07,50,3.10
2009,01,19,07,51,3.10
2009,01,19,07,52,3.00
2009,01,19,07,53,2.90
2009,01,19,07,54,2.80
2009,01,19,07,55,2.70
2009,01,19,07,56,2.70
2009,01,19,07,57,2.60
2009,01,19,07,58,2.50
2009,01,19,07,59,2.50
2009,01,19,08,00,2.40
2009,01,19,08,01,2.30
2009,01,19,08,02,2.20
2009,01,19,08,03,2.20
2009,01,19,08,04,2.20
2009,01,19,08,05,2.10
2009,01,19,08,06,2.10
2009,01,19,08,07,2.10
2009,01,19,08,08,2.20
2009,01,19,08,09,2.20
2009,01,19,08,10,2.20
2009,01,19,08,11,2.20
2009,01,19,08,12,2.20
2009,01,19,08,13,2.20
2009,01,19,08,14,2.20
2009,01,19,08,15,2.20
2009,01,19,08,16,2.20
2009,01,19,08,17,2.10
2009,01,19,08,18,2.10
2009,01,19,08,19,2.00
2009,01,19,08,20,1.90
2009,01,19,08,21,1.90
2009,01,19,08,22,1.90
2009,01,19,08,23,1.80
2009,01,19,08,24,1.80
2009,01,19,08,25,1.80
2009,01,19,08,26,1.90
2009,01,19,08,27,2.00
2009,01,19,08,28,2.00
2009,01,19,08,29,2.00
2009,01,19,08,30,2.00
2009,01,19,08,31,2.00
2009,01,19,08,32,2.00
2009,01,19,08,33,2.10
2009,01,19,08,34,2.10
2009,01,19,08,35,2.20
2009,01,19,08,36,2.40
2009,01,19,08,37,2.50
2009,01,19,08,38,2.60
2009,01,19,08,39,2.70
2009,01,19,08,40,2.80
2009,01,19,08,41,2.90
2009,01,19,08,42,2.90
2009,01,19,08,43,3.00
2009,01,19,08,44,3.10
2009,01,19,08,45,3.10
2009,01,19,08,46,3.20
2009,01,19,08,47,3.30
2009,01,19,08,48,3.30
2009,01,19,08,49,3.30
2009,01,19,08,50,3.30
2009,01,19,08,51,3.30
2009,01,19,08,52,3.30
2009,01,19,08,53,3.20
2009,01,19,08,54,3.20
2009,01,19,08,55,3.20
2009,01,19,08,56,3.20
2009,01,19,08,57,3.10
2009,01,19,08,58,3.10
2009,01,19,08,59,3.10
2009,01,19,09,00,3.10
2009,01,19,09,01,3.10
2009,01,19,09,02,3.10
2009,01,19,09,03,3.10
2009,01,19,09,04,3.20
2009,01,19,09,05,3.20
2009,01,19,09,06,3.30
2009,01,19,09,07,3.30
2009,01,19,09,08,3.30
2009,01,19,09,09,3.30
2009,01,19,09,10,3.40
2009,01,19,09,11,3.50
2009,01,19,09,12,3.50
2009,01,19,09,13,3.60
2009,01,19,09,14,3.60
2009,01,19,09,15,3.70
2009,01,19,09,16,3.80
2009,01,19,09,17,3.80
2009,01,19,09,18,3.80
2009,01,19,09,19,3.90
2009,01,19,09,20,4.00
2009,01,19,09,21,4.00
2009,01,19,09,22,4.10
2009,01,19,09,23,4.20
2009,01,19,09,24,4.20
2009,01,19,09,25,4.20
2009,01,19,09,26,4.20
2009,01,19,09,27,4.30
2009,01,19,09,28,4.30
2009,01,19,09,29,4.30
2009,01,19,09,30,4.30
2009,01,19,09,31,4.30
2009,01,19,09,32,4.40
2009,01,19,09,33,4.40
2009,01,19,09,34,4.40
2009,01,19,09,35,4.50
2009,01,19,09,36,4.50
2009,01,19,09,37,4.50
2009,01,19,09,38,4.60
2009,01,19,09,39,4.60
2009,01,19,09,40,4.60
2009,01,19,09,41,4.70
2009,01,19,09,42,4.80
2009,01,19,09,43,4.80
2009,01,19,09,44,4.90
2009,01,19,09,45,5.00
2009,01,19,09,46,5.10
2009,01,19,09,47,5.10
2009,01,19,09,48,5.20
2009,01,19,09,49,5.30
2009,01,19,09,50,5.40
2009,01,19,09,51,5.50
2009,01,19,09,52,5.50
2009,01,19,09,53,5.60
2009,01,19,09,54,5.70
2009,01,19,09,55,5.80
2009,01,19,09,56,5.90
2009,01,19,09,57,5.90
2009,01,19,09,58,6.00
2009,01,19,09,59,6.00
2009,01,19,10,00,6.10
2009,01,19,10,01,6.20
2009,01,19,10,02,6.20
2009,01,19,10,03,6.20
2009,01,19,10,04,6.30
2009,01,19,10,05,6.40
2009,01,19,10,06,6.40
2009,01,19,10,07,6.40
2009,01,19,10,08,6.50
2009,01,19,10,09,6.60
2009,01,19,10,10,6.70
2009,01,19,10,11,6.70
2009,01,19,10,12,6.80
2009,01,19,10,13,6.90
2009,01,19,10,14,7.00
2009,01,19,10,15,7.00
2009,01,19,10,16,7.10
2009,01,19,10,17,7.20
2009,01,19,10,18,7.30
2009,01,19,10,19,7.50
2009,01,19,10,20,7.50
2009,01,19,10,21,7.50
2009,01,19,10,22,7.50
2009,01,19,10,23,7.50
2009,01,19,10,24,7.60
2009,01,19,10,25,7.60
2009,01,19,10,26,7.70
2009,01,19,10,27,7.70
2009,01,19,10,28,7.80
2009,01,19,10,29,7.80
2009,01,19,10,30,7.80
2009,01,19,10,31,7.70
2009,01,19,10,32,7.70
2009,01,19,10,33,7.60
2009,01,19,10,34,7.60
2009,01,19,10,35,7.50
2009,01,19,10,36,7.50
2009,01,19,10,37,7.40
2009,01,19,10,38,7.40
2009,01,19,10,39,7.40
2009,01,19,10,40,7.40
2009,01,19,10,41,7.40
2009,01,19,10,42,7.40
2009,01,19,10,43,7.40
2009,01,19,10,44,7.50
2009,01,19,10,45,7.50
2009,01,19,10,46,7.60
2009,01,19,10,47,7.60
2009,01,19,10,48,7.70
2009,01,19,10,49,7.70
2009,01,19,10,50,7.80
2009,01,19,10,51,7.80
2009,01,19,10,52,7.90
2009,01,19,10,53,8.00
2009,01,19,10,54,8.10
2009,01,19,10,55,8.20
2009,01,19,10,56,8.20
2009,01,19,10,57,8.40
2009,01,19,10,58,8.40
2009,01,19,10,59,8.50
2009,01,19,11,00,8.60
2009,01,19,11,01,8.60
2009,01,19,11,02,8.70
2009,01,19,11,03,8.80
2009,01,19,11,04,8.80
2009,01,19,11,05,8.90
2009,01,19,11,06,9.00
2009,01,19,11,07,9.10
2009,01,19,11,08,9.20
2009,01,19,11,09,9.20
2009,01,19,11,10,9.20
2009,01,19,11,11,9.30
2009,01,19,11,12,9.30
2009,01,19,11,13,9.40
2009,01,19,11,14,9.40
2009,01,19,11,15,9.40
2009,01,19,11,16,9.50
2009,01,19,11,17,9.50
2009,01,19,11,18,9.60
2009,01,19,11,19,9.60
2009,01,19,11,20,9.70
2009,01,19,11,21,9.70
2009,01,19,11,22,9.70
2009,01,19,11,23,9.80
2009,01,19,11,24,9.80
2009,01,19,11,25,9.80
2009,01,19,11,26,9.80
2009,01,19,11,27,9.90
2009,01,19,11,28,9.90
2009,01,19,11,29,9.90
2009,01,19,11,30,9.90
2009,01,19,11,31,9.90
2009,01,19,11,32,9.90
2009,01,19,11,33,10.00
2009,01,19,11,34,10.10
2009,01,19,11,35,10.10
2009,01,19,11,36,10.10
2009,01,19,11,37,10.10
2009,01,19,11,38,10.10
2009,01,19,11,39,10.10
2009,01,19,11,40,10.10
2009,01,19,11,41,10.10
2009,01,19,11,42,10.10
2009,01,19,11,43,10.10
2009,01,19,11,44,10.10
2009,01,19,11,45,10.20
2009,01,19,11,46,10.20
2009,01,19,11,47,10.20
2009,01,19,11,48,10.20
2009,01,19,11,49,10.30
2009,01,19,11,50,10.30
2009,01,19,11,51,10.30
2009,01,19,11,52,10.30
2009,01,19,11,53,10.30
2009,01,19,11,54,10.40
2009,01,19,11,55,10.40
2009,01,19,11,56,10.50
2009,01,19,11,57,10.60
2009,01,19,11,58,10.60
2009,01,19,11,59,10.60
2009,01,19,12,00,10.60
2009,01,19,12,01,10.60
2009,01,19,12,02,10.60
2009,01,19,12,03,10.60
2009,01,19,12,04,10.60
2009,01,19,12,05,10.60
2009,01,19,12,06,10.60
2009,01,19,12,07,10.60
2009,01,19,12,08,10.60
2009,01,19,12,09,10.70
2009,01,19,12,10,10.70
2009,01,19,12,11,10.70
2009,01,19,12,12,10.70
2009,01,19,12,13,10.70
2009,01,19,12,14,10.70
2009,01,19,12,15,10.60
2009,01,19,12,16,10.60
2009,01,19,12,17,10.60
2009,01,19,12,18,10.60
2009,01,19,12,19,10.70
2009,01,19,12,20,10.70
2009,01,19,12,21,10.80
2009,01,19,12,22,10.80
2009,01,19,12,23,10.90
2009,01,19,12,24,10.90
2009,01,19,12,25,10.90
2009,01,19,12,26,11.00
2009,01,19,12,27,10.90
2009,01,19,12,28,10.90
2009,01,19,12,29,10.90
2009,01,19,12,30,10.90
2009,01,19,12,31,10.90
2009,01,19,12,32,10.90
2009,01,19,12,33,10.90
2009,01,19,12,34,11.10
2009,01,19,12,35,11.10
2009,01,19,12,36,11.10
2009,01,19,12,37,11.10
2009,01,19,12,38,11.10
2009,01,19,12,39,11.20
2009,01,19,12,40,11.20
2009,01,19,12,41,11.20
2009,01,19,12,42,11.30
2009,01,19,12,43,11.30
2009,01,19,12,44,11.30
2009,01,19,12,45,11.30
2009,01,19,12,46,11.40
2009,01,19,12,47,11.40
2009,01,19,12,48,11.40
2009,01,19,12,49,11.40
2009,01,19,12,50,11.40
2009,01,19,12,51,11.50
2009,01,19,12,52,11.50
2009,01,19,12,53,11.40
2009,01,19,12,54,11.40
2009,01,19,12,55,11.40
2009,01,19,12,56,11.40
2009,01,19,12,57,11.40
2009,01,19,12,58,11.50
2009,01,19,12,59,11.60
2009,01,19,13,00,11.60
2009,01,19,13,01,11.60
2009,01,19,13,02,11.60
2009,01,19,13,03,11.60
2009,01,19,13,04,11.60
2009,01,19,13,05,11.60
2009,01,19,13,06,11.70
2009,01,19,13,07,11.70
2009,01,19,13,08,11.70
2009,01,19,13,09,11.60
2009,01,19,13,10,11.60
2009,01,19,13,11,11.60
2009,01,19,13,12,11.60
2009,01,19,13,13,11.70
2009,01,19,13,14,11.70
2009,01,19,13,15,11.70
2009,01,19,13,16,11.70
2009,01,19,13,17,11.70
2009,01,19,13,18,11.70
2009,01,19,13,19,11.70
2009,01,19,13,20,11.70
2009,01,19,13,21,11.70
2009,01,19,13,22,11.60
2009,01,19,13,23,11.60
2009,01,19,13,24,11.60
2009,01,19,13,25,11.60
2009,01,19,13,26,11.60
2009,01,19,13,27,11.60
2009,01,19,13,28,11.60
2009,01,19,13,29,11.70
2009,01,19,13,30,11.70
2009,01,19,13,31,11.70
2009,01,19,13,32,11.80
2009,01,19,13,33,11.80
2009,01,19,13,34,11.80
2009,01,19,13,35,11.80
2009,01,19,13,36,11.80
2009,01,19,13,37,11.80
2009,01,19,13,38,11.80
2009,01,19,13,39,11.80
2009,01,19,13,40,11.80
2009,01,19,13,41,11.90
2009,01,19,13,42,11.90
2009,01,19,13,43,11.90
2009,01,19,13,44,11.90
2009,01,19,13,45,11.90
2009,01,19,13,46,11.90
2009,01,19,13,47,11.90
2009,01,19,13,48,11.80
2009,01,19,13,49,11.80
2009,01,19,13,50,11.80
2009,01,19,13,51,11.90
2009,01,19,13,52,11.90
2009,01,19,13,53,11.90
2009,01,19,13,54,11.90
2009,01,19,13,55,11.90
2009,01,19,13,56,12.00
2009,01,19,13,57,11.90
2009,01,19,13,58,11.90
2009,01,19,13,59,11.90
2009,01,19,14,00,11.90
2009,01,19,14,01,11.90
2009,01,19,14,02,11.90
2009,01,19,14,03,11.90
2009,01,19,14,04,12.00
2009,01,19,14,05,12.00
2009,01,19,14,06,12.00
2009,01,19,14,07,12.00
2009,01,19,14,08,12.00
2009,01,19,14,09,12.00
2009,01,19,14,10,12.00
2009,01,19,14,11,12.00
2009,01,19,14,12,12.00
2009,01,19,14,13,11.90
2009,01,19,14,14,11.90
2009,01,19,14,15,11.90
2009,01,19,14,16,11.90
2009,01,19,14,17,11.90
2009,01,19,14,18,12.00
2009,01,19,14,19,12.00
2009,01,19,14,20,12.00
2009,01,19,14,21,12.00
2009,01,19,14,22,12.00
2009,01,19,14,23,12.00
2009,01,19,14,24,12.00
2009,01,19,14,25,12.00
2009,01,19,14,26,12.00
2009,01,19,14,27,12.00
2009,01,19,14,28,12.10
2009,01,19,14,29,12.10
2009,01,19,14,30,12.10
2009,01,19,14,31,12.10
2009,01,19,14,32,12.10
2009,01,19,14,33,12.00
2009,01,19,14,34,12.00
2009,01,19,14,35,12.00
2009,01,19,14,36,12.00
2009,01,19,14,37,12.00
2009,01,19,14,38,12.00
2009,01,19,14,39,12.00
2009,01,19,14,40,12.10
2009,01,19,14,41,12.10
2009,01,19,14,42,12.10
2009,01,19,14,43,12.10
2009,01,19,14,44,12.10
2009,01,19,14,45,12.20
2009,01,19,14,46,12.20
2009,01,19,14,47,12.20
2009,01,19,14,48,12.20
2009,01,19,14,49,12.20
2009,01,19,14,50,12.30
2009,01,19,14,51,12.30
2009,01,19,14,52,12.30
2009,01,19,14,53,12.30
2009,01,19,14,54,12.30
2009,01,19,14,55,12.10
2009,01,19,14,56,11.80
2009,01,19,14,57,11.60
2009,01,19,14,58,11.40
2009,01,19,14,59,11.20
2009,01,19,15,00,11.10
2009,01,19,15,01,10.90
2009,01,19,15,02,10.80
2009,01,19,15,03,10.70
2009,01,19,15,04,10.60
2009,01,19,15,05,10.60
2009,01,19,15,06,10.40
2009,01,19,15,07,10.40
2009,01,19,15,08,10.40
2009,01,19,15,09,10.30
2009,01,19,15,10,10.30
2009,01,19,15,11,10.30
2009,01,19,15,12,10.30
2009,01,19,15,13,10.30
2009,01,19,15,14,10.30
2009,01,19,15,15,10.30
2009,01,19,15,16,10.30
2009,01,19,15,17,10.40
2009,01,19,15,18,10.30
2009,01,19,15,19,10.30
2009,01,19,15,20,10.20
2009,01,19,15,21,10.20
2009,01,19,15,22,10.10
2009,01,19,15,23,10.10
2009,01,19,15,24,10.10
2009,01,19,15,25,10.10
2009,01,19,15,26,10.00
2009,01,19,15,27,9.90
2009,01,19,15,28,9.90
2009,01,19,15,29,9.80
2009,01,19,15,30,9.70
2009,01,19,15,31,9.70
2009,01,19,15,32,9.70
2009,01,19,15,33,9.70
2009,01,19,15,34,9.70
2009,01,19,15,35,9.70
2009,01,19,15,36,9.70
2009,01,19,15,37,9.70
2009,01,19,15,38,9.70
2009,01,19,15,39,9.70
2009,01,19,15,40,9.70
2009,01,19,15,41,9.70
2009,01,19,15,42,9.70
2009,01,19,15,43,9.70
2009,01,19,15,44,9.70
2009,01,19,15,45,9.70
2009,01,19,15,46,9.60
2009,01,19,15,47,9.60
2009,01,19,15,48,9.50
2009,01,19,15,49,9.50
2009,01,19,15,50,9.40
2009,01,19,15,51,9.30
2009,01,19,15,52,9.30
2009,01,19,15,53,9.20
2009,01,19,15,54,9.10
2009,01,19,15,55,9.00
2009,01,19,15,56,9.00
2009,01,19,15,57,8.90
2009,01,19,15,58,8.80
2009,01,19,15,59,8.70
2009,01,19,16,00,8.60
2009,01,19,16,01,8.50
2009,01,19,16,02,8.40
2009,01,19,16,03,8.40
2009,01,19,16,04,8.30
2009,01,19,16,05,8.20
2009,01,19,16,06,8.20
2009,01,19,16,07,8.10
2009,01,19,16,08,8.10
2009,01,19,16,09,8.10
2009,01,19,16,10,8.00
2009,01,19,16,11,8.00
2009,01,19,16,12,8.00
2009,01,19,16,13,8.00
2009,01,19,16,14,8.00
2009,01,19,16,15,8.00
2009,01,19,16,16,8.00
2009,01,19,16,17,7.90
2009,01,19,16,18,7.90
2009,01,19,16,19,7.90
2009,01,19,16,20,7.90
2009,01,19,16,21,7.90
2009,01,19,16,22,7.90
2009,01,19,16,23,7.80
2009,01,19,16,24,7.80
2009,01,19,16,25,7.80
2009,01,19,16,26,7.80
2009,01,19,16,27,7.80
2009,01,19,16,28,7.80
2009,01,19,16,29,7.70
2009,01,19,16,30,7.70
2009,01,19,16,31,7.70
2009,01,19,16,32,7.60
2009,01,19,16,33,7.60
2009,01,19,16,34,7.60
2009,01,19,16,35,7.50
2009,01,19,16,36,7.50
2009,01,19,16,37,7.40
2009,01,19,16,38,7.40
2009,01,19,16,39,7.30
2009,01,19,16,40,7.30
2009,01,19,16,41,7.30
2009,01,19,16,42,7.30
2009,01,19,16,43,7.20
2009,01,19,16,44,7.20
2009,01,19,16,45,7.20
2009,01,19,16,46,7.10
2009,01,19,16,47,7.10
2009,01,19,16,48,7.00
2009,01,19,16,49,7.00
2009,01,19,16,50,7.00
2009,01,19,16,51,6.90
2009,01,19,16,52,6.90
2009,01,19,16,53,6.90
2009,01,19,16,54,6.80
2009,01,19,16,55,6.80
2009,01,19,16,56,6.80
2009,01,19,16,57,6.80
2009,01,19,16,58,6.80
2009,01,19,16,59,6.70
2009,01,19,17,00,6.70
2009,01,19,17,01,6.60
2009,01,19,17,02,6.60
2009,01,19,17,03,6.60
2009,01,19,17,04,6.60
2009,01,19,17,05,6.50
2009,01,19,17,06,6.40
2009,01,19,17,07,6.40
2009,01,19,17,08,6.40
2009,01,19,17,09,6.40
2009,01,19,17,10,6.40
2009,01,19,17,11,6.40
2009,01,19,17,12,6.40
2009,01,19,17,13,6.30
2009,01,19,17,14,6.30
2009,01,19,17,15,6.20
2009,01,19,17,16,6.20
2009,01,19,17,17,6.20
2009,01,19,17,18,6.20
2009,01,19,17,19,6.20
2009,01,19,17,20,6.10
2009,01,19,17,21,6.10
2009,01,19,17,22,6.10
2009,01,19,17,23,6.10
2009,01,19,17,24,6.10
2009,01,19,17,25,6.00
2009,01,19,17,26,6.00
2009,01,19,17,27,6.00
2009,01,19,17,28,6.00
2009,01,19,17,29,5.90
2009,01,19,17,30,5.90
2009,01,19,17,31,5.90
2009,01,19,17,32,5.80
2009,01,19,17,33,5.80
2009,01,19,17,34,5.70
2009,01,19,17,35,5.70
2009,01,19,17,36,5.70
2009,01,19,17,37,5.70
2009,01,19,17,38,5.70
2009,01,19,17,39,5.70
2009,01,19,17,40,5.60
2009,01,19,17,41,5.60
2009,01,19,17,42,5.60
2009,01,19,17,43,5.60
2009,01,19,17,44,5.60
2009,01,19,17,45,5.60
2009,01,19,17,46,5.50
2009,01,19,17,47,5.50
2009,01,19,17,48,5.50
2009,01,19,17,49,5.40
2009,01,19,17,50,5.40
2009,01,19,17,51,5.30
2009,01,19,17,52,5.30
2009,01,19,17,53,5.20
2009,01,19,17,54,5.20
2009,01,19,17,55,5.10
2009,01,19,17,56,5.10